Flag for Canada Weather past 2 weeks in Qikiqtarjuaq, Nunavut Territory, Canada

Now
52 °F

Scattered clouds.


Feels Like: 47 °F
Forecast: 42 / 53 °F
Wind: 16 mph from Southwest

Location: Broughton Island Airport

Current Time: Jul 30, 2014 at 2:07:18 PM

Latest Report: Jul 30, 2014 at 1:00 PM


Visibility: 15 mi

Pressure: 30.05 "Hg

Humidity: 72%

Dew point: 43 °F

Location of QikiqtarjuaqLocation

Historic Weather in Qikiqtarjuaq — Graph

°F

Qikiqtarjuaq temperature yesterday

Maximum temperature yesterday: 61 °F (at 6:00 PM)
Minimum temperature yesterday: 41 °F (at 8:00 AM)
Average temperature yesterday: 50 °F

Past Weeks' High & Low Weather Summary

 TemperatureHumidityPressure
High66 °F (Jul 20, 12:00 PM)100% (Jul 18, 1:00 AM)30.14 "Hg (Jul 18, 1:00 AM)
Low34 °F (Jul 25, 5:49 AM)32% (Jul 20, 2:00 PM)29.31 "Hg (Jul 20, 5:00 AM)
Average44 °F85%29.85 "Hg
* Reported Jul 15 1:00 PM — Jul 30 1:00 PM, Qikiqtarjuaq, Weather by CustomWeather, © 2014

Note: Actual official high and low records may vary slightly from our data, if they occured in-between our weather recording intervals... More about our weather records

Advertising

Qikiqtarjuaq weather history for previous 24 hours

 ConditionsComfort  
Time TempWeatherWind HumidityBarometerVisibility
1:00 PM
Jul 30
52 °FScattered clouds.16 mph72%30.05 "Hg15 mi
12:00 PM50 °FScattered clouds.12 mph76%30.06 "Hg15 mi
11:00 AM52 °FScattered clouds.7 mph72%30.07 "Hg15 mi
10:00 AM54 °FScattered clouds.6 mph72%30.09 "Hg15 mi
9:00 AM50 °FScattered clouds.13 mph71%30.09 "Hg15 mi
8:00 AM45 °FScattered clouds.15 mph81%30.10 "Hg15 mi
7:00 AM45 °FScattered clouds.12 mph81%30.11 "Hg15 mi
6:00 AM45 °FScattered clouds.2 mph81%30.11 "Hg15 mi
5:00 AM46 °FSunny.2 mph82%30.11 "Hg9 mi
4:00 AM45 °FSunny.5 mph87%30.11 "Hg9 mi
3:00 AM46 °FClear.5 mph87%30.11 "Hg9 mi
2:00 AM52 °FClear.10 mph72%30.12 "Hg9 mi
1:00 AM50 °FClear.13 mph76%30.12 "Hg9 mi
12:00 AM48 °FClear.15 mph76%30.13 "Hg9 mi
10:00 PM
Jul 29
50 °FSunny.13 mph71%30.14 "Hg9 mi
9:00 PM50 °FSunny.15 mph71%30.14 "Hg9 mi
8:00 PM46 °FSunny.16 mph76%30.13 "Hg9 mi
7:00 PM55 °FSunny.13 mph67%30.13 "Hg9 mi
6:00 PM61 °FPassing clouds.9 mph63%30.13 "Hg15 mi
5:00 PM57 °FPassing clouds.7 mph67%30.13 "Hg15 mi
4:00 PM46 °FScattered clouds.No wind82%30.13 "Hg15 mi
3:00 PM52 °FSunny.2 mph72%30.12 "Hg15 mi
2:00 PM55 °FSunny.6 mph67%30.11 "Hg15 mi
Weather by CustomWeather, © 2014

See weather overviewHow to use our weather pages